Time,TemperatureF,DewpointF,PressureIn,WindDirection,WindDirectionDegrees,WindSpeedMPH,WindSpeedGustMPH,Humidity,HourlyPrecipIn,Conditions,Clouds,dailyrainin,SolarRadiationWatts/m^2,SoftwareType,DateUTC
2013-04-22 00:03:00,55.0,37.0,29.52,ENE,72,4.0,10.0,50,0.00,,,0.00,0.000000,,2013-04-22 04:03:00,
2013-04-22 00:10:00,53.0,36.0,29.52,East,82,5.0,11.0,52,0.00,,,0.00,0.000000,,2013-04-22 04:10:00,
2013-04-22 00:33:00,53.0,36.0,29.52,East,82,5.0,11.0,52,0.00,,,0.00,0.000000,,2013-04-22 04:33:00,
2013-04-22 00:43:00,53.0,36.0,29.52,East,82,5.0,11.0,52,0.00,,,0.00,0.000000,,2013-04-22 04:43:00,
2013-04-22 00:53:00,53.0,36.0,29.52,East,82,5.0,11.0,52,0.00,,,0.00,0.000000,,2013-04-22 04:53:00,
2013-04-22 01:03:00,53.0,36.0,29.52,East,82,5.0,11.0,52,0.00,,,0.00,0.000000,,2013-04-22 05:03:00,
2013-04-22 01:10:00,52.0,36.0,29.51,ENE,69,6.0,14.0,54,0.00,,,0.00,0.000000,,2013-04-22 05:10:00,
2013-04-22 01:42:00,52.0,36.0,29.51,ENE,69,6.0,14.0,54,0.00,,,0.00,0.000000,,2013-04-22 05:42:00,
2013-04-22 01:52:00,52.0,36.0,29.51,ENE,69,6.0,14.0,54,0.00,,,0.00,0.000000,,2013-04-22 05:52:00,
2013-04-22 02:02:00,52.0,36.0,29.51,ENE,69,6.0,14.0,54,0.00,,,0.00,0.000000,,2013-04-22 06:02:00,
2013-04-22 02:10:00,50.0,36.0,29.50,ENE,67,5.0,14.0,59,0.00,,,0.00,0.000000,,2013-04-22 06:10:00,
2013-04-22 02:32:00,50.0,36.0,29.50,ENE,67,5.0,14.0,59,0.00,,,0.00,0.000000,,2013-04-22 06:32:00,
2013-04-22 02:42:00,50.0,36.0,29.50,ENE,67,5.0,14.0,59,0.00,,,0.00,0.000000,,2013-04-22 06:42:00,
2013-04-22 02:52:00,50.0,36.0,29.50,ENE,67,5.0,14.0,59,0.00,,,0.00,0.000000,,2013-04-22 06:52:00,
2013-04-22 03:01:00,50.0,36.0,29.50,ENE,67,5.0,14.0,59,0.00,,,0.00,0.000000,,2013-04-22 07:01:00,
2013-04-22 03:10:00,50.0,37.0,29.50,NE,42,5.0,14.0,60,0.00,,,0.00,0.000000,,2013-04-22 07:10:00,
2013-04-22 03:32:00,50.0,37.0,29.50,NE,42,5.0,14.0,60,0.00,,,0.00,0.000000,,2013-04-22 07:32:00,
2013-04-22 03:42:00,50.0,37.0,29.50,NE,42,5.0,14.0,60,0.00,,,0.00,0.000000,,2013-04-22 07:42:00,
2013-04-22 03:52:00,50.0,37.0,29.50,NE,42,5.0,14.0,60,0.00,,,0.00,0.000000,,2013-04-22 07:52:00,
2013-04-22 04:02:00,50.0,37.0,29.50,NE,42,5.0,14.0,60,0.00,,,0.00,0.000000,,2013-04-22 08:02:00,
2013-04-22 04:10:00,46.0,36.0,29.50,NE,56,3.0,14.0,68,0.00,,,0.00,0.000000,,2013-04-22 08:10:00,
2013-04-22 04:32:00,46.0,36.0,29.50,NE,56,3.0,14.0,68,0.00,,,0.00,0.000000,,2013-04-22 08:32:00,
2013-04-22 04:42:00,46.0,36.0,29.50,NE,56,3.0,14.0,68,0.00,,,0.00,0.000000,,2013-04-22 08:42:00,
2013-04-22 04:53:00,46.0,36.0,29.50,NE,56,3.0,14.0,68,0.00,,,0.00,0.000000,,2013-04-22 08:53:00,
2013-04-22 05:01:00,46.0,36.0,29.50,NE,56,3.0,14.0,68,0.00,,,0.00,0.000000,,2013-04-22 09:01:00,
2013-04-22 05:10:00,46.0,37.0,29.50,North,11,4.0,12.0,71,0.00,,,0.00,0.000000,,2013-04-22 09:10:00,
2013-04-22 05:33:00,46.0,37.0,29.50,North,11,4.0,12.0,71,0.00,,,0.00,0.000000,,2013-04-22 09:33:00,
2013-04-22 05:42:00,46.0,37.0,29.50,North,11,4.0,12.0,71,0.00,,,0.00,0.000000,,2013-04-22 09:42:00,
2013-04-22 05:53:00,46.0,37.0,29.50,North,11,4.0,12.0,71,0.00,,,0.00,0.000000,,2013-04-22 09:53:00,
2013-04-22 06:03:00,46.0,37.0,29.50,North,11,4.0,12.0,71,0.00,,,0.00,0.000000,,2013-04-22 10:03:00,
2013-04-22 06:10:00,45.0,37.0,29.51,NNE,13,4.0,11.0,74,0.00,,,0.00,0.000000,,2013-04-22 10:10:00,
2013-04-22 06:33:00,45.0,37.0,29.51,NNE,13,4.0,11.0,74,0.00,,,0.00,0.000000,,2013-04-22 10:33:00,
2013-04-22 06:42:00,45.0,37.0,29.51,NNE,13,4.0,11.0,74,0.00,,,0.00,0.000000,,2013-04-22 10:42:00,
2013-04-22 06:53:00,45.0,37.0,29.51,NNE,13,4.0,11.0,74,0.00,,,0.00,0.000000,,2013-04-22 10:53:00,
2013-04-22 07:02:00,45.0,37.0,29.51,NNE,13,4.0,11.0,74,0.00,,,0.00,0.000000,,2013-04-22 11:02:00,
2013-04-22 07:10:00,43.0,37.0,29.54,North,6,3.0,7.0,79,0.00,,,0.00,0.000000,,2013-04-22 11:10:00,
2013-04-22 07:42:00,43.0,37.0,29.54,North,6,3.0,7.0,79,0.00,,,0.00,0.000000,,2013-04-22 11:42:00,
2013-04-22 07:53:00,43.0,37.0,29.54,North,6,3.0,7.0,79,0.00,,,0.00,0.000000,,2013-04-22 11:53:00,
2013-04-22 08:02:00,43.0,37.0,29.54,North,6,3.0,7.0,79,0.00,,,0.00,0.000000,,2013-04-22 12:02:00,
2013-04-22 09:10:00,52.0,37.0,29.55,NNE,17,7.0,12.0,56,-99.99,,,0.00,42.000000,,2013-04-22 13:10:00,
2013-04-22 09:42:00,52.0,37.0,29.55,NNE,17,7.0,12.0,56,-99.99,,,0.00,42.000000,,2013-04-22 13:42:00,
2013-04-22 09:53:00,52.0,37.0,29.55,NNE,17,7.0,12.0,56,-99.99,,,0.00,42.000000,,2013-04-22 13:53:00,
2013-04-22 10:02:00,52.0,37.0,29.55,NNE,17,7.0,12.0,56,-99.99,,,0.00,42.000000,,2013-04-22 14:02:00,
2013-04-22 10:10:00,55.0,33.0,29.53,NE,40,6.0,15.0,43,0.00,,,0.00,330.000000,,2013-04-22 14:10:00,
2013-04-22 10:33:00,55.0,33.0,29.53,NE,40,6.0,15.0,43,0.00,,,0.00,330.000000,,2013-04-22 14:33:00,
2013-04-22 10:42:00,55.0,33.0,29.53,NE,40,6.0,15.0,43,0.00,,,0.00,330.000000,,2013-04-22 14:42:00,
2013-04-22 10:52:00,55.0,33.0,29.53,NE,40,6.0,15.0,43,0.00,,,0.00,330.000000,,2013-04-22 14:52:00,
2013-04-22 11:02:00,55.0,33.0,29.53,NE,40,6.0,15.0,43,0.00,,,0.00,330.000000,,2013-04-22 15:02:00,
2013-04-22 11:10:00,59.0,33.0,29.51,ENE,59,6.0,13.0,37,0.00,,,0.00,588.000000,,2013-04-22 15:10:00,
2013-04-22 11:33:00,59.0,33.0,29.51,ENE,59,6.0,13.0,37,0.00,,,0.00,588.000000,,2013-04-22 15:33:00,
2013-04-22 11:43:00,59.0,33.0,29.51,ENE,59,6.0,13.0,37,0.00,,,0.00,588.000000,,2013-04-22 15:43:00,
2013-04-22 11:53:00,59.0,33.0,29.51,ENE,59,6.0,13.0,37,0.00,,,0.00,588.000000,,2013-04-22 15:53:00,
2013-04-22 12:03:00,59.0,33.0,29.51,ENE,59,6.0,13.0,37,0.00,,,0.00,588.000000,,2013-04-22 16:03:00,
2013-04-22 12:10:00,59.0,31.0,29.49,SW,234,6.0,16.0,34,0.00,,,0.00,821.000000,,2013-04-22 16:10:00,
2013-04-22 12:33:00,59.0,31.0,29.49,SW,234,6.0,16.0,34,0.00,,,0.00,821.000000,,2013-04-22 16:33:00,
2013-04-22 12:42:00,59.0,31.0,29.49,SW,234,6.0,16.0,34,0.00,,,0.00,821.000000,,2013-04-22 16:42:00,
2013-04-22 12:52:00,59.0,31.0,29.49,SW,234,6.0,16.0,34,0.00,,,0.00,821.000000,,2013-04-22 16:52:00,
2013-04-22 13:02:00,59.0,31.0,29.49,SW,234,6.0,16.0,34,0.00,,,0.00,821.000000,,2013-04-22 17:02:00,
2013-04-22 13:10:00,62.0,30.0,29.45,WSW,247,5.0,15.0,30,0.00,,,0.00,1004.000000,,2013-04-22 17:10:00,
2013-04-22 13:32:00,62.0,30.0,29.45,WSW,247,5.0,15.0,30,0.00,,,0.00,1004.000000,,2013-04-22 17:32:00,
2013-04-22 13:43:00,62.0,30.0,29.45,WSW,247,5.0,15.0,30,0.00,,,0.00,1004.000000,,2013-04-22 17:43:00,
2013-04-22 13:52:00,62.0,30.0,29.45,WSW,247,5.0,15.0,30,0.00,,,0.00,1004.000000,,2013-04-22 17:52:00,
2013-04-22 14:02:00,62.0,30.0,29.45,WSW,247,5.0,15.0,30,0.00,,,0.00,1004.000000,,2013-04-22 18:02:00,
2013-04-22 14:10:00,66.0,33.0,29.42,North,9,5.0,13.0,29,0.00,,,0.00,1115.000000,,2013-04-22 18:10:00,
2013-04-22 14:42:00,66.0,33.0,29.42,North,9,5.0,13.0,29,0.00,,,0.00,1115.000000,,2013-04-22 18:42:00,
2013-04-22 14:52:00,66.0,33.0,29.42,North,9,5.0,13.0,29,0.00,,,0.00,1115.000000,,2013-04-22 18:52:00,
2013-04-22 15:02:00,66.0,33.0,29.42,North,9,5.0,13.0,29,0.00,,,0.00,1115.000000,,2013-04-22 19:02:00,
2013-04-22 15:10:00,68.0,34.0,29.40,NNE,20,6.0,18.0,28,0.00,,,0.00,1150.000000,,2013-04-22 19:10:00,
2013-04-22 15:42:00,68.0,34.0,29.40,NNE,20,6.0,18.0,28,0.00,,,0.00,1150.000000,,2013-04-22 19:42:00,
2013-04-22 15:53:00,68.0,34.0,29.40,NNE,20,6.0,18.0,28,0.00,,,0.00,1150.000000,,2013-04-22 19:53:00,
2013-04-22 16:02:00,68.0,34.0,29.40,NNE,20,6.0,18.0,28,0.00,,,0.00,1150.000000,,2013-04-22 20:02:00,
2013-04-22 16:10:00,68.0,32.0,29.37,NNW,334,4.0,14.0,26,0.00,,,0.00,1107.000000,,2013-04-22 20:10:00,
2013-04-22 16:42:00,68.0,32.0,29.37,NNW,334,4.0,14.0,26,0.00,,,0.00,1107.000000,,2013-04-22 20:42:00,
2013-04-22 16:52:00,68.0,32.0,29.37,NNW,334,4.0,14.0,26,0.00,,,0.00,1107.000000,,2013-04-22 20:52:00,
2013-04-22 17:02:00,68.0,32.0,29.37,NNW,334,4.0,14.0,26,0.00,,,0.00,1107.000000,,2013-04-22 21:02:00,
2013-04-22 17:10:00,69.0,33.0,29.35,East,95,6.0,13.0,26,0.00,,,0.00,983.000000,,2013-04-22 21:10:00,
2013-04-22 17:33:00,69.0,33.0,29.35,East,95,6.0,13.0,26,0.00,,,0.00,983.000000,,2013-04-22 21:33:00,
2013-04-22 17:43:00,69.0,33.0,29.35,East,95,6.0,13.0,26,0.00,,,0.00,983.000000,,2013-04-22 21:43:00,
2013-04-22 17:53:00,69.0,33.0,29.35,East,95,6.0,13.0,26,0.00,,,0.00,983.000000,,2013-04-22 21:53:00,
2013-04-22 18:03:00,69.0,33.0,29.35,East,95,6.0,13.0,26,0.00,,,0.00,983.000000,,2013-04-22 22:03:00,
2013-04-22 18:10:00,66.0,32.0,29.34,East,86,6.0,16.0,28,0.00,,,0.00,794.000000,,2013-04-22 22:10:00,
2013-04-22 18:42:00,66.0,32.0,29.34,East,86,6.0,16.0,28,0.00,,,0.00,794.000000,,2013-04-22 22:42:00,
2013-04-22 18:52:00,66.0,32.0,29.34,East,86,6.0,16.0,28,0.00,,,0.00,794.000000,,2013-04-22 22:52:00,
2013-04-22 19:02:00,66.0,32.0,29.34,East,86,6.0,16.0,28,0.00,,,0.00,794.000000,,2013-04-22 23:02:00,
2013-04-22 19:10:00,61.0,31.0,29.34,WSW,243,4.0,13.0,32,0.00,,,0.00,459.000000,,2013-04-22 23:10:00,
2013-04-22 19:33:00,61.0,31.0,29.34,WSW,243,4.0,13.0,32,0.00,,,0.00,459.000000,,2013-04-22 23:33:00,
2013-04-22 19:43:00,61.0,31.0,29.34,WSW,243,4.0,13.0,32,0.00,,,0.00,459.000000,,2013-04-22 23:43:00,
2013-04-22 19:52:00,61.0,31.0,29.34,WSW,243,4.0,13.0,32,0.00,,,0.00,459.000000,,2013-04-22 23:52:00,
2013-04-22 20:02:00,61.0,31.0,29.34,WSW,243,4.0,13.0,32,0.00,,,0.00,459.000000,,2013-04-23 00:02:00,
2013-04-22 21:10:00,52.0,32.0,29.37,ENE,76,3.0,5.0,46,-99.99,,,0.00,22.000000,,2013-04-23 01:10:00,
2013-04-22 21:42:00,52.0,32.0,29.37,ENE,76,3.0,5.0,46,-99.99,,,0.00,22.000000,,2013-04-23 01:42:00,
2013-04-22 21:52:00,52.0,32.0,29.37,ENE,76,3.0,5.0,46,-99.99,,,0.00,22.000000,,2013-04-23 01:52:00,
2013-04-22 22:02:00,52.0,32.0,29.37,ENE,76,3.0,5.0,46,-99.99,,,0.00,22.000000,,2013-04-23 02:02:00,
2013-04-22 22:10:00,49.0,39.0,29.39,NNE,30,1.0,6.0,67,0.00,,,0.00,0.000000,,2013-04-23 02:10:00,
2013-04-22 22:33:00,49.0,39.0,29.39,NNE,30,1.0,6.0,67,0.00,,,0.00,0.000000,,2013-04-23 02:33:00,
2013-04-22 22:42:00,49.0,39.0,29.39,NNE,30,1.0,6.0,67,0.00,,,0.00,0.000000,,2013-04-23 02:42:00,
2013-04-22 22:52:00,49.0,39.0,29.39,NNE,30,1.0,6.0,67,0.00,,,0.00,0.000000,,2013-04-23 02:52:00,
2013-04-22 23:02:00,49.0,39.0,29.39,NNE,30,1.0,6.0,67,0.00,,,0.00,0.000000,,2013-04-23 03:02:00,
2013-04-22 23:10:00,43.0,35.0,29.40,WNW,303,2.0,3.0,74,0.00,,,0.00,0.000000,,2013-04-23 03:10:00,
2013-04-22 23:33:00,43.0,35.0,29.40,WNW,303,2.0,3.0,74,0.00,,,0.00,0.000000,,2013-04-23 03:33:00,
2013-04-22 23:43:00,43.0,35.0,29.40,WNW,303,2.0,3.0,74,0.00,,,0.00,0.000000,,2013-04-23 03:43:00,
2013-04-22 23:53:00,43.0,35.0,29.40,WNW,303,2.0,3.0,74,0.00,,,0.00,0.000000,,2013-04-23 03:53:00,